When you browse on this site, cookies collect data to enhance your experience and personalize the content and advertising you see.
Visit our Privacy Policy to learn more. By continuing to use the site, you agree to this use of cookies and data.

Météo par heure à San Vicente

Ce jour, 6 Juillet, Lundi

Heure Température Précipitation Vent Pression Humidité
00:00 +9°C° 0 mm 1 m/s 745 mmHg 87%
01:00 +9°C° 0 mm 1 m/s 745 mmHg 88%
02:00 +9°C° 0 mm 1 m/s 744 mmHg 89%
03:00 +9°C° 0 mm 1 m/s 744 mmHg 90%
04:00 +9°C° 0 mm 1 m/s 744 mmHg 91%
05:00 +9°C° 0 mm 1 m/s 743 mmHg 90%
06:00 +8°C° 0 mm 1 m/s 743 mmHg 90%
07:00 +8°C° 0 mm 1 m/s 743 mmHg 90%
08:00 +9°C° 0 mm 1 m/s 743 mmHg 87%
09:00 +10°C° 0 mm 1 m/s 743 mmHg 84%
10:00 +11°C° 0 mm 1 m/s 743 mmHg 81%
11:00 +12°C° 0 mm 1 m/s 743 mmHg 79%
12:00 +12°C° 0 mm 1 m/s 742 mmHg 76%
13:00 +13°C° 0 mm 1 m/s 742 mmHg 74%
14:00 +13°C° 0 mm 1 m/s 742 mmHg 78%
15:00 +12°C° 0 mm 1 m/s 742 mmHg 81%
16:00 +12°C° 0 mm 1 m/s 742 mmHg 85%
17:00 +11°C° 0 mm 1 m/s 743 mmHg 86%
18:00 +10°C° 0 mm 1 m/s 743 mmHg 87%
19:00 +8°C° 0 mm 0 m/s 744 mmHg 88%
20:00 +8°C° 0 mm 0 m/s 744 mmHg 88%
21:00 +8°C° 0 mm 0 m/s 744 mmHg 87%
22:00 +8°C° 0 mm 0 m/s 744 mmHg 87%
23:00 +8°C° 0 mm 0 m/s 745 mmHg 87%

Demain, 7 Juillet, Mardi

Heure Température Précipitation Vent Pression Humidité
00:00 +8°C° 0 mm 0 m/s 745 mmHg 87%
01:00 +8°C° 0 mm 0 m/s 745 mmHg 86%
02:00 +8°C° 0 mm 0 m/s 745 mmHg 86%
03:00 +8°C° 0 mm 0 m/s 746 mmHg 86%
04:00 +8°C° 0 mm 0 m/s 746 mmHg 86%
05:00 +7°C° 0 mm 0 m/s 746 mmHg 86%
06:00 +7°C° 0 mm 0 m/s 747 mmHg 86%
07:00 +7°C° 0 mm 0 m/s 747 mmHg 86%
08:00 +8°C° 0 mm 0 m/s 747 mmHg 82%
09:00 +10°C° 0 mm 0 m/s 747 mmHg 78%
10:00 +13°C° 0 mm 1 m/s 748 mmHg 74%
11:00 +14°C° 0 mm 1 m/s 748 mmHg 71%
12:00 +14°C° 0 mm 1 m/s 748 mmHg 68%
13:00 +15°C° 0 mm 1 m/s 747 mmHg 65%
14:00 +14°C° 0.1 mm 1 m/s 748 mmHg 69%
15:00 +14°C° 0.1 mm 1 m/s 748 mmHg 73%
16:00 +13°C° 0.1 mm 1 m/s 748 mmHg 77%
17:00 +12°C° 0 mm 1 m/s 749 mmHg 78%
18:00 +10°C° 0 mm 0 m/s 749 mmHg 79%
19:00 +9°C° 0 mm 0 m/s 749 mmHg 81%
20:00 +8°C° 0 mm 0 m/s 749 mmHg 81%
21:00 +8°C° 0 mm 0 m/s 749 mmHg 81%
22:00 +8°C° 0 mm 0 m/s 749 mmHg 82%
23:00 +8°C° 0 mm 0 m/s 749 mmHg 82%

Après-demain, 8 Juillet, Mercredi

Heure Température Précipitation Vent Pression Humidité
00:00 +8°C° 0 mm 0 m/s 749 mmHg 81%
01:00 +8°C° 0 mm 0 m/s 749 mmHg 81%
02:00 +8°C° 0 mm 0 m/s 748 mmHg 81%
03:00 +8°C° 0 mm 0 m/s 748 mmHg 81%
04:00 +8°C° 0 mm 0 m/s 748 mmHg 81%
05:00 +8°C° 0 mm 0 m/s 748 mmHg 80%
06:00 +7°C° 0 mm 0 m/s 749 mmHg 80%
07:00 +8°C° 0 mm 1 m/s 749 mmHg 80%
08:00 +10°C° 0 mm 1 m/s 749 mmHg 78%
09:00 +11°C° 0 mm 1 m/s 749 mmHg 75%
10:00 +12°C° 0 mm 1 m/s 748 mmHg 72%
11:00 +13°C° 0 mm 1 m/s 748 mmHg 68%
12:00 +14°C° 0 mm 1 m/s 748 mmHg 64%
13:00 +15°C° 0 mm 1 m/s 747 mmHg 61%
14:00 +15°C° 0 mm 1 m/s 747 mmHg 65%
15:00 +14°C° 0 mm 1 m/s 747 mmHg 69%
16:00 +14°C° 0 mm 1 m/s 748 mmHg 73%
17:00 +12°C° 0 mm 1 m/s 748 mmHg 74%
18:00 +11°C° 0 mm 1 m/s 748 mmHg 76%
19:00 +10°C° 0 mm 1 m/s 748 mmHg 77%
20:00 +10°C° 0 mm 1 m/s 748 mmHg 78%
21:00 +10°C° 0 mm 1 m/s 748 mmHg 79%
22:00 +9°C° 0 mm 1 m/s 748 mmHg 80%
23:00 +9°C° 0 mm 1 m/s 748 mmHg 80%

9 Juillet, Jeudi

Heure Température Précipitation Vent Pression Humidité
00:00 +9°C° 0 mm 1 m/s 748 mmHg 80%
01:00 +9°C° 0 mm 1 m/s 748 mmHg 80%
02:00 +9°C° 0 mm 1 m/s 747 mmHg 80%
03:00 +9°C° 0 mm 1 m/s 747 mmHg 81%
04:00 +9°C° 0 mm 1 m/s 747 mmHg 81%
05:00 +9°C° 0 mm 1 m/s 747 mmHg 81%
06:00 +9°C° 0 mm 1 m/s 747 mmHg 81%
07:00 +9°C° 0 mm 1 m/s 747 mmHg 80%
08:00 +10°C° 0 mm 1 m/s 747 mmHg 77%
09:00 +12°C° 0 mm 1 m/s 747 mmHg 74%
10:00 +13°C° 0 mm 1 m/s 747 mmHg 70%
11:00 +14°C° 0 mm 1 m/s 747 mmHg 68%
12:00 +15°C° 0 mm 1 m/s 747 mmHg 66%
13:00 +16°C° 0 mm 1 m/s 746 mmHg 64%
14:00 +15°C° 0 mm 1 m/s 746 mmHg 68%
15:00 +15°C° 0 mm 1 m/s 746 mmHg 72%
16:00 +14°C° 0 mm 1 m/s 746 mmHg 76%
17:00 +13°C° 0 mm 1 m/s 747 mmHg 78%
18:00 +12°C° 0 mm 1 m/s 747 mmHg 80%
19:00 +10°C° 0 mm 1 m/s 747 mmHg 83%
20:00 +10°C° 0 mm 1 m/s 747 mmHg 82%
21:00 +10°C° 0 mm 1 m/s 747 mmHg 80%
22:00 +10°C° 0 mm 1 m/s 747 mmHg 79%
23:00 +10°C° 0 mm 1 m/s 747 mmHg 78%

10 Juillet, Vendredi

Heure Température Précipitation Vent Pression Humidité
00:00 +10°C° 0 mm 1 m/s 747 mmHg 77%
01:00 +10°C° 0 mm 1 m/s 747 mmHg 75%
02:00 +9°C° 0 mm 1 m/s 746 mmHg 76%
03:00 +9°C° 0 mm 1 m/s 746 mmHg 76%
04:00 +9°C° 0 mm 1 m/s 746 mmHg 77%
05:00 +9°C° 0 mm 1 m/s 746 mmHg 77%
06:00 +9°C° 0 mm 1 m/s 747 mmHg 77%
07:00 +9°C° 0 mm 1 m/s 747 mmHg 78%
08:00 +10°C° 0 mm 1 m/s 747 mmHg 75%
09:00 +12°C° 0 mm 1 m/s 747 mmHg 72%
10:00 +14°C° 0 mm 1 m/s 747 mmHg 69%
11:00 +15°C° 0 mm 1 m/s 746 mmHg 68%
12:00 +16°C° 0 mm 1 m/s 746 mmHg 67%
13:00 +18°C° 0 mm 1 m/s 746 mmHg 67%
14:00 +16°C° 0 mm 1 m/s 746 mmHg 71%
15:00 +16°C° 0 mm 1 m/s 746 mmHg 76%
16:00 +15°C° 0 mm 1 m/s 746 mmHg 81%
17:00 +14°C° 0 mm 1 m/s 746 mmHg 83%
18:00 +13°C° 0 mm 1 m/s 747 mmHg 84%
19:00 +12°C° 0 mm 1 m/s 747 mmHg 86%
20:00 +12°C° 0 mm 1 m/s 747 mmHg 85%
21:00 +11°C° 0 mm 1 m/s 747 mmHg 85%
22:00 +11°C° 0 mm 1 m/s 747 mmHg 84%
23:00 +11°C° 0 mm 1 m/s 746 mmHg 84%

11 Juillet, Samedi

Heure Température Précipitation Vent Pression Humidité
00:00 +11°C° 0 mm 1 m/s 746 mmHg 83%
01:00 +11°C° 0 mm 1 m/s 746 mmHg 83%
02:00 +11°C° 0 mm 1 m/s 746 mmHg 82%
03:00 +11°C° 0 mm 1 m/s 746 mmHg 82%
04:00 +10°C° 0 mm 0 m/s 746 mmHg 82%
05:00 +10°C° 0 mm 0 m/s 746 mmHg 80%
06:00 +10°C° 0 mm 0 m/s 746 mmHg 79%
07:00 +10°C° 0 mm 0 m/s 746 mmHg 78%
08:00 +12°C° 0 mm 0 m/s 746 mmHg 75%
09:00 +13°C° 0 mm 0 m/s 746 mmHg 72%
10:00 +15°C° 0 mm 0 m/s 746 mmHg 69%
11:00 +16°C° 0 mm 1 m/s 746 mmHg 70%
12:00 +18°C° 0 mm 1 m/s 745 mmHg 71%
13:00 +18°C° 0 mm 1 m/s 745 mmHg 71%
14:00 +18°C° 0 mm 1 m/s 745 mmHg 76%
15:00 +16°C° 0 mm 1 m/s 745 mmHg 81%
16:00 +16°C° 0 mm 1 m/s 745 mmHg 86%
17:00 +15°C° 0 mm 1 m/s 745 mmHg 87%
18:00 +14°C° 0 mm 1 m/s 746 mmHg 89%
19:00 +13°C° 0 mm 1 m/s 746 mmHg 91%
20:00 +13°C° 0 mm 1 m/s 746 mmHg 91%
21:00 +13°C° 0 mm 1 m/s 746 mmHg 91%
22:00 +12°C° 0 mm 1 m/s 746 mmHg 91%
23:00 +12°C° 0 mm 1 m/s 746 mmHg 91%
Voir plus